Tracking 27422 objects as of 30-May-2023
HD Live streaming from Space Station
objects crossing your sky now

MOLNIYA 3-41

Track MOLNIYA 3-41 now!
MOLNIYA 3-41 is classified as:


NORAD ID: 21706
Int'l Code: 1991-065A
Perigee: 1,442.7 km
Apogee: 38,277.3 km
Inclination: 64.1 °
Period: 704.7 minutes
Semi major axis: 26231 km
RCS: 14.2786 m2 (large)
Launch date: September 17, 1991
Source: Commonwealth of Independent States (former USSR) (CIS)
Launch site: PLESETSK MISSILE AND SPACE COMPLEX (PKMTR)
Your satellite tracking list
Your tracking list is empty




NASA's NSSDC Master Catalog

Two Line Element Set (TLE):
1 21706U 91065A   23149.86079738 -.00000650  00000-0  00000-0 0  9996
2 21706  64.0553 126.4934 7021182 252.9026  24.6033  2.04352605233943
Source of the keplerian elements: AFSPC